Weather History for KNXP - February, 2013

Change the Weather History Date:

Wednesday, February 6, 2013

  Actual Average Record
Temperature  
Mean Temperature 58 °F -  
Max Temperature 68 °F 60 °F 78 °F (2015)
Min Temperature 48 °F 37 °F 28 °F (2003)
Degree Days  
Heating Degree Days 7    
Growing Degree Days 8 (Base 50)    
Moisture  
Dew Point 23 °F    
Average Humidity 32    
Maximum Humidity 61    
Minimum Humidity 8    
Precipitation  
Precipitation 0.00 in - - ()
Sea Level Pressure  
Sea Level Pressure 29.94 in    
Wind  
Wind Speed 12 mph (NW)    
Max Wind Speed 22 mph    
Max Gust Speed 28 mph    
Visibility 10 miles    
Events      
Averages and records for this station are not official NWS values.
T = Trace of Precipitation, MM = Missing Value Source: NWS Daily Summary

Daily Weather History Graph

Daily Weather History Graph

Search for Another Location

Airport or City:

Trip Planner

Search our weather history database for the weather conditions in past years. The results will help you decide how hot, cold, wet, or windy it might be!

Date:

Astronomy

Feb. 06, 2013 Rise Set
Actual Time 6:37 AM PST 5:20 PM PST
Civil Twilight 6:11 AM PST 5:46 PM PST
Nautical Twilight 5:42 AM PST 6:15 PM PST
Astronomical Twilight 5:12 AM PST 6:45 PM PST
Moon 3:21 AM PST (2/6) 1:47 PM PST (2/6)
Length of Visible Light 11h 34m
Length of Day
10h 42m
Waning Crescent, 16% of the Moon is Illuminated
Feb 6
Waning Crescent
Feb 9
New
Feb 17
First Quarter
Feb 25
Full
Mar 4
Last Quarter

Hourly Weather History & Observations

Time (PST) Temp. Dew Point Humidity Pressure Visibility Wind Dir Wind Speed Gust Speed Precip Events Conditions
12:56 AM 55.9 °F 30.9 °F 39% 29.91 in 10.0 mi West 9.2 mph - N/A   Clear
1:56 AM 55.9 °F 34.0 °F 44% 29.91 in 10.0 mi WNW 11.5 mph - N/A   Clear
2:56 AM 54.0 °F 39.0 °F 57% 29.91 in 7.0 mi NW 10.4 mph - N/A   Clear
3:56 AM 53.1 °F 37.9 °F 57% 29.91 in 7.0 mi NW 13.8 mph - N/A   Clear
4:56 AM 51.1 °F 37.9 °F 61% 29.92 in 8.0 mi NW 9.2 mph - N/A   Clear
5:56 AM 50.0 °F 36.0 °F 59% 29.94 in 8.0 mi WNW 9.2 mph - N/A   Clear
6:56 AM 51.1 °F 34.0 °F 52% 29.97 in 9.0 mi NW 15.0 mph - N/A   Clear
7:56 AM 51.1 °F 35.1 °F 54% 29.99 in 9.0 mi WNW 21.9 mph 27.6 mph N/A   Clear
8:56 AM 54.0 °F 33.1 °F 45% 30.01 in 10.0 mi NW 15.0 mph 25.3 mph N/A   Clear
9:56 AM 59.0 °F 30.0 °F 33% 30.01 in 10.0 mi WNW 16.1 mph 25.3 mph N/A   Clear
10:56 AM 64.0 °F 28.0 °F 26% 30.01 in 10.0 mi NW 16.1 mph - N/A   Clear
11:56 AM 66.0 °F 23.0 °F 20% 30.00 in 10.0 mi NNW 16.1 mph 24.2 mph N/A   Clear
12:56 PM 66.9 °F 19.0 °F 16% 29.31 in 10.0 mi NW 17.3 mph 23.0 mph N/A   Clear
1:56 PM 68.0 °F 16.0 °F 14% 29.31 in 10.0 mi NW 17.3 mph 25.3 mph N/A   Clear
2:56 PM 68.0 °F 10.9 °F 11% 29.97 in 10.0 mi NNW 15.0 mph - N/A   Clear
3:56 PM 66.9 °F 6.1 °F 9% 29.98 in 10.0 mi NNW 16.1 mph 23.0 mph N/A   Clear
4:56 PM 64.9 °F 1.9 °F 8% 29.99 in 10.0 mi NNW 9.2 mph - N/A   Clear
5:56 PM 61.0 °F 6.1 °F 11% 30.01 in 10.0 mi NW 10.4 mph - N/A   Clear
6:56 PM 55.0 °F 10.9 °F 17% 30.04 in 10.0 mi NNE 3.5 mph - N/A   Clear
7:56 PM 54.0 °F 12.9 °F 20% 30.06 in 10.0 mi West 9.2 mph - N/A   Clear
8:56 PM 53.1 °F 21.0 °F 29% 30.06 in 10.0 mi West 11.5 mph - N/A   Clear
9:56 PM 48.9 °F 19.9 °F 32% 30.08 in 10.0 mi Calm Calm - N/A   Clear
10:56 PM 50.0 °F 19.9 °F 31% 30.08 in 10.0 mi West 11.5 mph - N/A   Clear
11:56 PM 48.9 °F 19.0 °F 31% 30.09 in 10.0 mi West 5.8 mph - N/A   Clear